| time (UTC) | temp F | wind direction | speed knots | gust knots | rain 1hr in | rain 24hr in | rain mn in | humidity % | barometer mb |
| 20260906053023 | 70 | 124 | 2.6 | 5.2 | 0.00 | 0.00 | 0.00 | 91 | 1011.4 |
| 20260906051517 | 70 | 121 | 2.6 | 5.2 | 0.00 | 0.00 | 0.00 | 91 | 1011.3 |
| 20260906050028 | 69 | 121 | 2.6 | 4.3 | 0.00 | 0.00 | 0.00 | 90 | 1011.4 |
| 20260906044506 | 69 | 117 | 1.7 | 3.5 | 0.00 | 0.00 | 0.00 | 90 | 1011.5 |
| 20260906043015 | 70 | 113 | 0.9 | 4.3 | 0.00 | 0.00 | 0.00 | 89 | 1011.4 |
| 20260906041517 | 70 | 131 | 0.9 | 2.6 | 0.00 | 0.00 | 0.00 | 88 | 1011.3 |
| 20260906040016 | 70 | 84 | 1.7 | 3.5 | 0.00 | 0.00 | 0.00 | 87 | 1011.1 |
| 20260906034527 | 70 | 129 | 0.9 | 2.6 | 0.00 | 0.00 | 0.00 | 87 | 1010.7 |
| 20260906033028 | 71 | 114 | 1.7 | 3.5 | 0.00 | 0.00 | 0.00 | 86 | 1010.8 |
| 20260906031506 | 71 | 134 | 1.7 | 3.5 | 0.00 | 0.00 | 0.00 | 87 | 1011.0 |
| 20260906030021 | 71 | 134 | 0.9 | 2.6 | 0.00 | 0.00 | 0.00 | 86 | 1011.0 |
| 20260906024524 | 71 | 134 | 1.7 | 3.5 | 0.00 | 0.00 | 0.00 | 87 | 1010.6 |
| 20260906023044 | 71 | 134 | 1.7 | 2.6 | 0.00 | 0.00 | 0.00 | 86 | 1010.4 |
| 20260906021610 | 71 | 134 | 0.9 | 2.6 | 0.00 | 0.00 | 0.00 | 85 | 1010.2 |
| 20260906020107 | 72 | 109 | 0.9 | 2.6 | 0.00 | 0.00 | 0.00 | 84 | 1010.2 |
| 20260906014508 | 73 | 109 | 0.9 | 1.7 | 0.00 | 0.00 | 0.00 | 82 | 1010.1 |
| 20260906013042 | 74 | 109 | 0.9 | 3.5 | 0.00 | 0.00 | 0.00 | 80 | 1010.2 |
| 20260906011606 | 75 | 84 | 0.9 | 2.6 | 0.00 | 0.00 | 0.00 | 78 | 1010.1 |
| 20260906010020 | 76 | 115 | 1.7 | 7.0 | 0.00 | 0.00 | 0.00 | 75 | 1010.0 |
| 20260906004507 | 77 | 110 | 3.5 | 7.0 | 0.00 | 0.00 | 0.00 | 74 | 1010.0 |
| 20260906003109 | 78 | 97 | 1.7 | 5.2 | 0.00 | 0.00 | 0.00 | 72 | 1009.9 |
| 20260906001511 | 80 | 146 | 5.2 | 11.3 | 0.00 | 0.00 | 0.00 | 69 | 1009.7 |
| 20260906000035 | 81 | 96 | 4.3 | 11.3 | 0.00 | 0.00 | 0.00 | 68 | 1009.4 |
| 20260905234529 | 82 | 127 | 5.2 | 11.3 | 0.00 | 0.00 | 0.00 | 67 | 1009.4 |
| 20260905233028 | 82 | 92 | 5.2 | 12.2 | 0.00 | 0.00 | 0.00 | 66 | 1009.4 |
| 20260905231540 | 83 | 97 | 4.3 | 11.3 | 0.00 | 0.00 | 0.00 | 66 | 1009.4 |
| 20260905230018 | 0 | 0.0 | 0.0 | 0.00 | 0.00 | 0.00 | 1009.4 | ||
| 20260905224559 | 0 | 0.0 | 0.0 | 0.00 | 0.00 | 0.00 | 1009.3 | ||
| 20260905223003 | 0 | 0.0 | 0.0 | 0.00 | 0.00 | 0.00 | 1009.1 | ||
| 20260905221525 | 0 | 0.0 | 0.0 | 0.00 | 0.00 | 0.00 | 1008.9 | ||
| 20260905220040 | 0 | 0.0 | 0.0 | 0.00 | 0.00 | 0.00 | 1008.8 | ||
| 20260905214545 | 0 | 0.0 | 0.0 | 0.00 | 0.00 | 0.00 | 1009.0 | ||
| 20260905213019 | 0 | 0.0 | 0.0 | 0.00 | 0.00 | 0.00 | 1009.1 | ||
| 20260905211642 | 0 | 0.0 | 0.0 | 0.00 | 0.00 | 0.00 | 1009.2 | ||
| 20260905210058 | 0 | 0.0 | 0.0 | 0.00 | 0.00 | 0.00 | 1009.2 | ||
| 20260905204605 | 0 | 0.0 | 0.0 | 0.00 | 0.00 | 0.00 | 1009.3 | ||
| 20260905203016 | 0 | 0.0 | 0.0 | 0.00 | 0.00 | 0.00 | 1009.1 | ||
| 20260905201607 | 0 | 0.0 | 0.0 | 0.00 | 0.00 | 0.00 | 1009.2 | ||
| 20260905194558 | 0 | 0.0 | 0.0 | 0.00 | 0.00 | 0.00 | 1009.4 | ||
| 20260905193001 | 85 | 126 | 3.5 | 13.9 | 0.00 | 0.00 | 0.00 | 60 | 1009.2 |
| 20260905191556 | 85 | 69 | 4.3 | 7.8 | 0.00 | 0.00 | 0.00 | 59 | 1009.4 |
| 20260905190111 | 84 | 95 | 4.3 | 9.6 | 0.00 | 0.00 | 0.00 | 61 | 1009.6 |
| 20260905184514 | 83 | 128 | 3.5 | 9.6 | 0.00 | 0.00 | 0.00 | 63 | 1009.7 |
| 20260905183044 | 82 | 105 | 6.1 | 11.3 | 0.00 | 0.00 | 0.00 | 63 | 1009.8 |
| 20260905181605 | 82 | 91 | 5.2 | 11.3 | 0.00 | 0.00 | 0.00 | 65 | 1009.8 |
| 20260905180038 | 81 | 87 | 3.5 | 11.3 | 0.00 | 0.00 | 0.00 | 67 | 1010.0 |
| 20260905174549 | 79 | 119 | 5.2 | 11.3 | 0.00 | 0.00 | 0.00 | 70 | 1010.2 |
| 20260905173045 | 80 | 102 | 5.2 | 10.4 | 0.00 | 0.00 | 0.00 | 70 | 1010.2 |
| 20260905171609 | 78 | 122 | 3.5 | 10.4 | 0.00 | 0.00 | 0.00 | 73 | 1010.4 |
| 20260905170019 | 75 | 144 | 4.3 | 8.7 | 0.00 | 0.00 | 0.00 | 77 | 1010.5 |
| 20260905164535 | 76 | 88 | 3.5 | 8.7 | 0.00 | 0.00 | 0.00 | 77 | 1010.9 |
| 20260905163035 | 75 | 80 | 3.5 | 7.8 | 0.00 | 0.00 | 0.00 | 78 | 1010.7 |
| 20260905161532 | 74 | 117 | 3.5 | 9.6 | 0.00 | 0.00 | 0.00 | 79 | 1010.9 |
| 20260905160040 | 73 | 85 | 3.5 | 7.8 | 0.00 | 0.00 | 0.00 | 82 | 1011.1 |
| 20260905154555 | 71 | 77 | 3.5 | 7.0 | 0.00 | 0.00 | 0.00 | 86 | 1011.0 |
| 20260905153001 | 72 | 85 | 3.5 | 7.0 | 0.00 | 0.00 | 0.00 | 86 | 1010.9 |
| 20260905151520 | 69 | 123 | 2.6 | 7.0 | 0.00 | 0.00 | 0.00 | 91 | 1010.9 |
| 20260905150029 | 68 | 68 | 2.6 | 7.0 | 0.00 | 0.00 | 0.00 | 93 | 1011.0 |
| 20260905144551 | 68 | 73 | 3.5 | 6.1 | 0.00 | 0.00 | 0.00 | 94 | 1010.7 |
| 20260905143026 | 67 | 79 | 2.6 | 5.2 | 0.00 | 0.00 | 0.00 | 95 | 1010.6 |
| 20260905141508 | 67 | 96 | 2.6 | 6.1 | 0.00 | 0.00 | 0.00 | 94 | 1010.2 |
| 20260905140022 | 67 | 56 | 2.6 | 6.1 | 0.00 | 0.00 | 0.00 | 95 | 1010.5 |
| 20260905134503 | 67 | 59 | 1.7 | 3.5 | 0.00 | 0.00 | 0.00 | 95 | 1010.5 |
| 20260905133106 | 67 | 117 | 1.7 | 5.2 | 0.00 | 0.00 | 0.00 | 95 | 1010.7 |
| 20260905131551 | 67 | 75 | 0.9 | 3.5 | 0.00 | 0.00 | 0.00 | 95 | 1010.6 |
| 20260905130026 | 67 | 144 | 1.7 | 4.3 | 0.00 | 0.00 | 0.00 | 95 | 1010.9 |
| 20260905124536 | 67 | 162 | 0.9 | 4.3 | 0.00 | 0.00 | 0.00 | 95 | 1010.8 |
| 20260905123020 | 66 | 110 | 1.7 | 7.0 | 0.00 | 0.00 | 0.00 | 95 | 1010.0 |
| 20260905121540 | 66 | 51 | 2.6 | 7.0 | 0.00 | 0.00 | 0.00 | 94 | 1010.4 |
| 20260905120031 | 66 | 101 | 2.6 | 7.0 | 0.00 | 0.00 | 0.00 | 94 | 1010.1 |
| 20260905114622 | 67 | 99 | 2.6 | 6.1 | 0.00 | 0.00 | 0.00 | 94 | 1010.0 |
| 20260905113048 | 67 | 136 | 0.9 | 4.3 | 0.00 | 0.00 | 0.00 | 94 | 1010.3 |
| 20260905111504 | 67 | 94 | 1.7 | 3.5 | 0.00 | 0.00 | 0.00 | 94 | 1010.7 |
| 20260905110016 | 67 | 107 | 1.7 | 3.5 | 0.00 | 0.00 | 0.00 | 94 | 1010.6 |
| 20260905104529 | 66 | 217 | 0.0 | 1.7 | 0.00 | 0.00 | 0.00 | 94 | 1010.7 |
| 20260905103030 | 66 | 62 | 0.9 | 2.6 | 0.00 | 0.00 | 0.00 | 94 | 1010.4 |
| 20260905101510 | 0 | 0.0 | 0.0 | 0.00 | 0.00 | 0.00 | 1010.2 | ||
| 20260905100024 | 0 | 0.0 | 0.0 | 0.00 | 0.00 | 0.00 | 1010.1 | ||
| 20260905094538 | 0 | 0.0 | 0.0 | 0.00 | 0.00 | 0.00 | 1009.9 | ||
| 20260905093056 | 0 | 0.0 | 0.0 | 0.00 | 0.00 | 0.00 | 1009.8 | ||
| 20260905091504 | 0 | 0.0 | 0.0 | 0.00 | 0.00 | 0.00 | 1009.7 | ||
| 20260905090027 | 0 | 0.0 | 0.0 | 0.00 | 0.00 | 0.00 | 1009.9 | ||
| 20260905084540 | 0 | 0.0 | 0.0 | 0.00 | 0.00 | 0.00 | 1009.3 | ||
| 20260905083011 | 67 | 132 | 5.2 | 9.6 | 0.00 | 0.00 | 0.00 | 94 | 1009.3 |
| 20260905081521 | 67 | 149 | 2.6 | 6.1 | 0.00 | 0.00 | 0.00 | 94 | 1009.7 |
| 20260905080038 | 67 | 113 | 0.9 | 3.5 | 0.00 | 0.00 | 0.00 | 94 | 1009.9 |
| 20260905074600 | 67 | 70 | 0.9 | 4.3 | 0.00 | 0.00 | 0.00 | 94 | 1010.2 |
| 20260905073114 | 67 | 56 | 0.9 | 2.6 | 0.00 | 0.00 | 0.00 | 94 | 1010.3 |
| 20260905071524 | 68 | 137 | 0.9 | 2.6 | 0.00 | 0.00 | 0.00 | 94 | 1010.4 |
| 20260905070020 | 68 | 103 | 1.7 | 4.3 | 0.00 | 0.00 | 0.00 | 94 | 1010.6 |
| 20260905064507 | 67 | 133 | 0.9 | 3.5 | 0.00 | 0.00 | 0.00 | 94 | 1010.6 |
| 20260905063028 | 65 | 157 | 0.0 | 0.9 | 0.00 | 0.00 | 0.00 | 93 | 1010.6 |
| 20260905061622 | 65 | 157 | 0.0 | 0.9 | 0.00 | 0.00 | 0.00 | 93 | 1010.8 |
| 20260905060052 | 65 | 157 | 0.9 | 1.7 | 0.00 | 0.00 | 0.00 | 93 | 1010.8 |
| 20260905054530 | 66 | 157 | 0.0 | 0.0 | 0.00 | 0.00 | 0.00 | 93 | 1010.7 |